Météo par heure à Julianowo

Ce jour, 20 Juin, Dimanche

Heure Température Précipitation Vent Pression Humidité
00:00 +22°C° 0 mm 3 m/s 752 mmHg 79%
01:00 +22°C° 0 mm 3 m/s 752 mmHg 81%
02:00 +21°C° 0 mm 3 m/s 752 mmHg 83%
03:00 +20°C° 0 mm 3 m/s 751 mmHg 86%
04:00 +19°C° 0 mm 3 m/s 751 mmHg 89%
05:00 +21°C° 0 mm 3 m/s 751 mmHg 83%
06:00 +22°C° 0 mm 4 m/s 751 mmHg 78%
07:00 +23°C° 0 mm 4 m/s 752 mmHg 72%
08:00 +25°C° 0 mm 4 m/s 752 mmHg 66%
09:00 +27°C° 0 mm 4 m/s 752 mmHg 60%
10:00 +28°C° 0 mm 4 m/s 752 mmHg 54%
11:00 +29°C° 0 mm 4 m/s 751 mmHg 52%
12:00 +29°C° 0 mm 5 m/s 751 mmHg 49%
13:00 +30°C° 0 mm 5 m/s 750 mmHg 47%
14:00 +30°C° 0 mm 5 m/s 750 mmHg 47%
15:00 +30°C° 0 mm 4 m/s 750 mmHg 48%
16:00 +30°C° 0 mm 4 m/s 750 mmHg 48%
17:00 +29°C° 0 mm 3 m/s 749 mmHg 56%
18:00 +28°C° 0 mm 3 m/s 749 mmHg 64%
19:00 +26°C° 0 mm 3 m/s 749 mmHg 72%
20:00 +25°C° 0 mm 3 m/s 749 mmHg 77%
21:00 +24°C° 0 mm 3 m/s 749 mmHg 81%
22:00 +22°C° 0 mm 3 m/s 749 mmHg 86%
23:00 +21°C° 0 mm 3 m/s 749 mmHg 89%

Demain, 21 Juin, Lundi

Heure Température Précipitation Vent Pression Humidité
00:00 +21°C° 0 mm 3 m/s 749 mmHg 91%
01:00 +20°C° 0 mm 3 m/s 749 mmHg 93%
02:00 +20°C° 0 mm 3 m/s 749 mmHg 93%
03:00 +20°C° 0 mm 3 m/s 748 mmHg 93%
04:00 +20°C° 0 mm 3 m/s 748 mmHg 93%
05:00 +21°C° 0 mm 4 m/s 748 mmHg 86%
06:00 +22°C° 0 mm 4 m/s 748 mmHg 79%
07:00 +25°C° 0 mm 5 m/s 748 mmHg 72%
08:00 +26°C° 0 mm 6 m/s 748 mmHg 68%
09:00 +27°C° 0 mm 6 m/s 748 mmHg 63%
10:00 +28°C° 0 mm 6 m/s 748 mmHg 59%
11:00 +29°C° 0 mm 6 m/s 748 mmHg 56%
12:00 +30°C° 0 mm 6 m/s 747 mmHg 52%
13:00 +30°C° 0 mm 5 m/s 747 mmHg 49%
14:00 +30°C° 0 mm 5 m/s 747 mmHg 51%
15:00 +30°C° 0 mm 5 m/s 747 mmHg 53%
16:00 +29°C° 0 mm 4 m/s 746 mmHg 55%
17:00 +28°C° 0 mm 4 m/s 746 mmHg 61%
18:00 +27°C° 0 mm 3 m/s 746 mmHg 68%
19:00 +26°C° 0 mm 3 m/s 746 mmHg 74%
20:00 +25°C° 0.1 mm 3 m/s 746 mmHg 79%
21:00 +22°C° 0.1 mm 3 m/s 746 mmHg 83%
22:00 +21°C° 0.1 mm 3 m/s 746 mmHg 87%
23:00 +21°C° 0.5 mm 2 m/s 746 mmHg 89%

Après-demain, 22 Juin, Mardi

Heure Température Précipitation Vent Pression Humidité
00:00 +20°C° 0.5 mm 2 m/s 746 mmHg 92%
01:00 +20°C° 0.5 mm 2 m/s 746 mmHg 94%
02:00 +20°C° 0.2 mm 2 m/s 746 mmHg 95%
03:00 +20°C° 0.2 mm 2 m/s 746 mmHg 95%
04:00 +20°C° 0.2 mm 2 m/s 747 mmHg 96%
05:00 +21°C° 0 mm 2 m/s 747 mmHg 92%
06:00 +23°C° 0 mm 1 m/s 747 mmHg 88%
07:00 +24°C° 0 mm 1 m/s 748 mmHg 84%
08:00 +24°C° 0.2 mm 2 m/s 748 mmHg 84%
09:00 +24°C° 0.2 mm 2 m/s 748 mmHg 85%
10:00 +24°C° 0.2 mm 2 m/s 748 mmHg 85%
11:00 +24°C° 0.3 mm 3 m/s 748 mmHg 84%
12:00 +25°C° 0.3 mm 3 m/s 749 mmHg 83%
13:00 +25°C° 0.3 mm 3 m/s 749 mmHg 82%
14:00 +26°C° 0.3 mm 3 m/s 749 mmHg 77%
15:00 +27°C° 0.3 mm 3 m/s 749 mmHg 72%
16:00 +28°C° 0.3 mm 3 m/s 749 mmHg 67%
17:00 +27°C° 0.3 mm 3 m/s 749 mmHg 73%
18:00 +26°C° 0.3 mm 3 m/s 750 mmHg 79%
19:00 +25°C° 0.3 mm 3 m/s 750 mmHg 85%
20:00 +22°C° 0 mm 3 m/s 750 mmHg 88%
21:00 +21°C° 0 mm 3 m/s 750 mmHg 92%
22:00 +20°C° 0 mm 3 m/s 750 mmHg 96%
23:00 +19°C° 0 mm 3 m/s 750 mmHg 96%

23 Juin, Mercredi

Heure Température Précipitation Vent Pression Humidité
00:00 +18°C° 0 mm 3 m/s 750 mmHg 96%
01:00 +18°C° 0 mm 4 m/s 750 mmHg 96%
02:00 +17°C° 0 mm 3 m/s 750 mmHg 96%
03:00 +17°C° 0 mm 3 m/s 750 mmHg 96%
04:00 +17°C° 0 mm 3 m/s 751 mmHg 96%
05:00 +18°C° 0 mm 3 m/s 751 mmHg 92%
06:00 +20°C° 0 mm 4 m/s 751 mmHg 88%
07:00 +22°C° 0 mm 4 m/s 751 mmHg 84%
08:00 +24°C° 0 mm 3 m/s 751 mmHg 79%
09:00 +26°C° 0 mm 3 m/s 751 mmHg 73%
10:00 +28°C° 0 mm 3 m/s 750 mmHg 68%
11:00 +29°C° 0 mm 2 m/s 750 mmHg 65%
12:00 +30°C° 0 mm 2 m/s 750 mmHg 62%
13:00 +30°C° 0 mm 2 m/s 750 mmHg 59%
14:00 +30°C° 1 mm 2 m/s 750 mmHg 60%
15:00 +30°C° 1 mm 2 m/s 750 mmHg 62%
16:00 +30°C° 1 mm 2 m/s 750 mmHg 63%
17:00 +29°C° 1 mm 2 m/s 751 mmHg 69%
18:00 +27°C° 1 mm 2 m/s 751 mmHg 75%
19:00 +26°C° 1 mm 3 m/s 751 mmHg 81%
20:00 +24°C° 0.2 mm 3 m/s 751 mmHg 85%
21:00 +21°C° 0.2 mm 4 m/s 752 mmHg 90%
22:00 +19°C° 0.2 mm 4 m/s 752 mmHg 94%
23:00 +18°C° 0 mm 4 m/s 752 mmHg 94%

24 Juin, Jeudi

Heure Température Précipitation Vent Pression Humidité
00:00 +18°C° 0 mm 4 m/s 752 mmHg 95%
01:00 +17°C° 0 mm 4 m/s 752 mmHg 95%
02:00 +15°C° 0 mm 4 m/s 753 mmHg 96%
03:00 +14°C° 0 mm 3 m/s 753 mmHg 97%
04:00 +14°C° 0 mm 2 m/s 753 mmHg 97%
05:00 +14°C° 0 mm 3 m/s 753 mmHg 94%
06:00 +16°C° 0 mm 3 m/s 753 mmHg 91%
07:00 +17°C° 0 mm 3 m/s 753 mmHg 88%
08:00 +19°C° 0 mm 3 m/s 754 mmHg 82%
09:00 +21°C° 0 mm 3 m/s 754 mmHg 75%
10:00 +22°C° 0 mm 3 m/s 754 mmHg 68%
11:00 +24°C° 0 mm 3 m/s 754 mmHg 64%
12:00 +26°C° 0 mm 2 m/s 754 mmHg 60%
13:00 +27°C° 0 mm 2 m/s 753 mmHg 55%
14:00 +27°C° 0 mm 2 m/s 753 mmHg 54%
15:00 +27°C° 0 mm 1 m/s 753 mmHg 53%
16:00 +28°C° 0 mm 1 m/s 753 mmHg 52%
17:00 +27°C° 0 mm 1 m/s 752 mmHg 58%
18:00 +26°C° 0 mm 1 m/s 752 mmHg 63%
19:00 +25°C° 0 mm 2 m/s 751 mmHg 68%
20:00 +23°C° 0 mm 2 m/s 752 mmHg 73%
21:00 +21°C° 0 mm 3 m/s 752 mmHg 77%
22:00 +20°C° 0 mm 3 m/s 752 mmHg 81%
23:00 +19°C° 1.4 mm 3 m/s 752 mmHg 86%

25 Juin, Vendredi

Heure Température Précipitation Vent Pression Humidité
00:00 +19°C° 1.4 mm 3 m/s 751 mmHg 91%
01:00 +19°C° 1.4 mm 3 m/s 751 mmHg 96%
02:00 +19°C° 2.9 mm 4 m/s 751 mmHg 95%
03:00 +19°C° 2.9 mm 5 m/s 750 mmHg 95%
04:00 +19°C° 2.9 mm 6 m/s 750 mmHg 95%
05:00 +19°C° 0 mm 5 m/s 750 mmHg 92%
06:00 +20°C° 0 mm 3 m/s 750 mmHg 89%
07:00 +22°C° 0 mm 1 m/s 750 mmHg 86%
08:00 +22°C° 0.1 mm 1 m/s 750 mmHg 84%
09:00 +23°C° 0.1 mm 1 m/s 750 mmHg 82%
10:00 +23°C° 0.1 mm 1 m/s 750 mmHg 80%
11:00 +20°C° 0.2 mm 3 m/s 751 mmHg 84%
12:00 +19°C° 0.2 mm 5 m/s 751 mmHg 88%
13:00 +16°C° 0.2 mm 7 m/s 752 mmHg 92%
14:00 +16°C° 0.1 mm 7 m/s 752 mmHg 90%
15:00 +15°C° 0.1 mm 6 m/s 752 mmHg 88%
16:00 +15°C° 0.1 mm 6 m/s 753 mmHg 87%
17:00 +15°C° 0 mm 5 m/s 753 mmHg 84%
18:00 +16°C° 0 mm 5 m/s 753 mmHg 82%
19:00 +17°C° 0 mm 4 m/s 753 mmHg 79%
20:00 +16°C° 0 mm 3 m/s 753 mmHg 84%
21:00 +14°C° 0 mm 3 m/s 754 mmHg 88%
22:00 +14°C° 0 mm 2 m/s 754 mmHg 92%
23:00 +13°C° 0 mm 2 m/s 754 mmHg 92%
Voir plus

Nous avons besoin de votre consentement

Meteoprog et ses fournisseurs de services peuvent stocker et accéder à des données personnelles telles que des cookies, des identifiants d'appareils ou d'autres technologies similaires sur votre appareil et traiter ces données pour personnaliser le contenu et les publicités, ainsi que pour fournir des fonctionnalités de médias sociaux et analyser le trafic.

  • Stocker et/ou accéder à des informations sur votre appareil

    Des cookies, des identifiants d'appareils ou d'autres informations peuvent être stockés ou accessibles sur votre appareil aux fins indiquées ci-dessus.

  • Annonces et contenus personnalisés, mesure des annonces et des contenus, connaissance de l'audience et développement de produits

    Les annonces et le contenu peuvent être personnalisés en fonction d'un profil. D'autres données peuvent être ajoutées pour mieux personnaliser les annonces et le contenu. Les performances des publicités et du contenu peuvent être mesurées. Il est possible d'obtenir des informations sur le public qui a vu les publicités et le contenu. Ces données peuvent être utilisées pour développer ou améliorer l'expérience de l'utilisateur, les systèmes et les logiciels.

En cliquant sur "J'accepte", vous autorisez l'utilisation de cookies, des identifiants d'appareils, des balises web ou d'autres technologies similaires. Vos paramètres peuvent être modifiés dans le navigateur de votre appareil.

Dans certains cas, des intérêts légitimes peuvent être invoqués plutôt qu'un consentement. Vous pouvez en savoir plus à ce sujet dans notre Politique de confidentialité et de cookies.